Location: Bauerbach
(50.4985°N, 10.3912°E)
Time: 11:03:39
(UTC+00:00)

Cosmos 1844 Rocket - Pass Details

Date: 13 January 2026
Orbit: 822 x 845 km, 71.0° (Epoch: 16 February)

Event Time Altitude Azimuth Distance (km) Brightness Sun altitude
Exits shadow 03:23:04 26° 32° (NNE) 1,620 4.4 -36.0°
Drops below altitude 10° 03:25:24 10° 31° (NNE) 2,472 5.5 -35.6°
Sets 03:27:51 0° 31° (NNE) 3,413 6.3 -35.2°
